Home   Weather   Bellingham   Past weeks

Flag for USA Past Weather in Bellingham, Washington, USA — November 2013

Now
78 °F

Sunny.


Feels Like: 79 °F
Forecast: 60 / 76 °F
Wind: 6 mph from West

Location: Bellingham International Airport

Current Time: Jul 25, 2017 at 6:03:04 pm

Latest Report: Jul 25, 2017 at 4:53 pm


Visibility: 10 mi

Pressure: 30.01 "Hg

Humidity: 48%

Dew Point: 57 °F

Location of BellinghamLocation

November 2013 Weather in Bellingham — Graph

°F

High & Low Weather Summary for November 2013

 TemperatureHumidityPressure
High57 °F (Nov 7, 8:53 am)100% (Nov 3, 5:04 am)30.72 "Hg (Nov 3, 5:04 am)
Low24 °F (Nov 21, 2:53 am)35% (Nov 19, 12:53 pm)29.29 "Hg (Nov 15, 10:04 pm)
Average43 °F81%30.11 "Hg
* Reported Nov 1 12:53 am — Nov 30 11:53 pm, Bellingham. Weather by CustomWeather, © 2017

Note: Actual official high and low records may vary slightly from our data, if they occured in-between our weather recording intervals... More about our weather records

Advertising

Bellingham Weather History for November 1, 2013

Scroll right to see more
 ConditionsComfort  
Time TempWeatherWind HumidityBarometerVisibility
12:53 am
Fri, Nov 1
53 °FOvercast.5 mph86%30.28 "Hg10 mi
1:53 am52 °FOvercast.6 mph89%30.27 "Hg10 mi
2:53 am52 °FOvercast.8 mph89%30.27 "Hg10 mi
3:53 am51 °FOvercast.6 mph89%30.27 "Hg10 mi
4:53 am51 °FOvercast.6 mph89%30.26 "Hg10 mi
5:53 am51 °FOvercast.7 mph89%30.26 "Hg10 mi
6:53 am51 °FOvercast.10 mph89%30.25 "Hg10 mi
7:53 am52 °FOvercast.10 mph86%30.24 "Hg10 mi
8:53 am52 °FCloudy.9 mph86%30.24 "Hg10 mi
9:53 am53 °FOvercast.8 mph80%30.24 "Hg10 mi
11:03 am54 °FMore clouds than sun.6 mph77%30.20 "Hg10 mi
11:53 am53 °FMore clouds than sun.6 mph83%30.22 "Hg10 mi
12:53 pm54 °FMostly cloudy.No wind80%30.22 "Hg10 mi
1:53 pm54 °FOvercast.No wind80%30.18 "Hg10 mi
2:53 pm55 °FMostly cloudy.3 mph77%30.15 "Hg10 mi
3:53 pm55 °FMostly cloudy.6 mph83%30.12 "Hg8 mi
4:00 pm55 °FOvercast.7 mph82%30.10 "Hg8 mi
4:53 pm53 °FOvercast.6 mph86%30.09 "Hg8 mi
5:53 pm52 °FLow clouds.6 mph89%30.05 "Hg7 mi
6:53 pm51 °FOvercast.3 mph92%30.00 "Hg7 mi
7:53 pm51 °FFog.5 mph89%29.96 "Hg6 mi
8:53 pm50 °FOvercast.7 mph93%29.92 "Hg8 mi
9:53 pm51 °FLight rain. Mostly cloudy.5 mph89%29.90 "Hg10 mi
10:53 pm50 °FRain. Fog.3 mph93%29.86 "Hg4 mi
11:53 pm51 °FLight rain. Mostly cloudy.No wind89%29.81 "Hg10 mi
Weather by CustomWeather, © 2017

See weather overviewHow to use our weather pages